Location: ?????
(38.3715°N, 23.0573°E)
Time: 20:44:51
(UTC+00:00)

Cosmos 2333 Rocket - Pass Details

Date: 03 August 2024
Orbit: 839 x 863 km, 70.8° (Epoch: 17 September)

Event Time Altitude Azimuth Distance (km) Brightness Sun altitude
Exits shadow 23:09:12 16° 83° (E) 2,077 4.3 -33.8°
Drops below altitude 10° 23:11:35 10° 60° (ENE) 2,495 5.1 -33.8°
Sets 23:14:51 0° 41° (NE) 3,440 6.2 -33.6°
